RYR6QX LIME-LGKR

Flight info

Callsign RYR6QX
Flight time N/A
Altitude 35000
Route LOGDI DCT LURUT DCT BAKEP DCT EDUGI DCT SOMIG DCT VAKSU DCT RODON DCT LIMJA N732 PITAS
Aircraft B738/M-SDE2E3FGHIRWXY/LB1

Departure

Time 2026-05-05 15:59
Airport Il Caravaggio International Airport (LIME)

Arrival

Time N/A
Airport Corfu Ioannis Kapodistrias International Airport (LGKR)
Time Latitude Longitude Altitude Speed Heading
2026-05-05 15:17 45.66728 9.69617 778 ft 0 kts 195°
2026-05-05 15:45 45.66729 9.69618 778 ft 1 kts 195°
2026-05-05 15:45 45.66739 9.69622 778 ft 2 kts 195°
2026-05-05 15:46 45.66751 9.69626 779 ft 2 kts 195°
2026-05-05 15:46 45.66763 9.69631 779 ft 2 kts 195°
2026-05-05 15:46 45.66774 9.69635 779 ft 2 kts 195°
2026-05-05 15:46 45.66781 9.69638 779 ft 0 kts 195°
2026-05-05 15:47 45.66793 9.69641 780 ft 2 kts 172°
2026-05-05 15:47 45.66802 9.69636 780 ft 2 kts 152°
2026-05-05 15:47 45.66814 9.69621 780 ft 2 kts 120°
2026-05-05 15:47 45.66817 9.69611 780 ft 1 kts 105°
2026-05-05 15:48 45.66819 9.69603 780 ft 0 kts 104°
2026-05-05 15:53 45.66818 9.69606 780 ft 1 kts 104°
2026-05-05 15:53 45.66810 9.69653 780 ft 11 kts 105°
2026-05-05 15:53 45.66785 9.69786 779 ft 21 kts 105°
2026-05-05 15:53 45.66745 9.69993 778 ft 23 kts 104°
2026-05-05 15:54 45.66728 9.70090 778 ft 23 kts 104°
2026-05-05 15:54 45.66687 9.70314 777 ft 22 kts 104°
2026-05-05 15:54 45.66648 9.70524 780 ft 20 kts 105°
2026-05-05 15:54 45.66610 9.70725 778 ft 23 kts 105°
2026-05-05 15:55 45.66565 9.70961 776 ft 25 kts 105°
2026-05-05 15:55 45.66505 9.71210 770 ft 27 kts 110°
2026-05-05 15:55 45.66456 9.71461 766 ft 22 kts 105°
2026-05-05 15:55 45.66452 9.71686 763 ft 23 kts 76°
2026-05-05 15:56 45.66464 9.71910 761 ft 22 kts 103°
2026-05-05 15:56 45.66425 9.72120 759 ft 20 kts 104°
2026-05-05 15:56 45.66395 9.72291 757 ft 9 kts 103°
2026-05-05 15:56 45.66382 9.72369 756 ft 0 kts 104°
2026-05-05 15:57 45.66381 9.72374 756 ft 1 kts 105°
2026-05-05 15:57 45.66380 9.72380 755 ft 2 kts 106°
2026-05-05 15:57 45.66378 9.72431 754 ft 9 kts 72°
2026-05-05 15:57 45.66457 9.72427 755 ft 15 kts 303°
2026-05-05 15:58 45.66502 9.72203 760 ft 50 kts 285°
2026-05-05 15:58 45.66653 9.71400 770 ft 116 kts 285°
2026-05-05 15:58 45.66911 9.70018 785 ft 170 kts 285°
2026-05-05 15:58 45.67225 9.68264 1148 ft 190 kts 285°
2026-05-05 15:59 45.67442 9.66477 1969 ft 187 kts 264°
2026-05-05 15:59 45.66862 9.64848 2649 ft 193 kts 219°
2026-05-05 15:59 45.65673 9.64092 3477 ft 190 kts 194°
2026-05-05 15:59 45.64485 9.63330 4248 ft 194 kts 220°
2026-05-05 16:00 45.63598 9.61902 5047 ft 195 kts 230°
2026-05-05 16:00 45.62733 9.60438 5815 ft 196 kts 226°
2026-05-05 16:00 45.61808 9.59038 6572 ft 198 kts 223°
2026-05-05 16:00 45.60816 9.57619 7196 ft 208 kts 223°
2026-05-05 16:01 45.59766 9.56134 7749 ft 222 kts 224°
2026-05-05 16:01 45.58636 9.54528 8335 ft 238 kts 224°
2026-05-05 16:01 45.57407 9.52932 9148 ft 243 kts 215°
2026-05-05 16:01 45.55896 9.51933 10009 ft 245 kts 191°
2026-05-05 16:02 45.54187 9.51929 10694 ft 256 kts 172°
2026-05-05 16:02 45.52432 9.52712 11247 ft 273 kts 161°
2026-05-05 16:02 45.50626 9.53800 11736 ft 291 kts 160°
2026-05-05 16:02 45.48754 9.54964 12244 ft 306 kts 160°
2026-05-05 16:03 45.46745 9.56198 12724 ft 323 kts 161°
2026-05-05 16:03 45.44629 9.57480 13177 ft 339 kts 161°
2026-05-05 16:03 45.42424 9.58804 13696 ft 353 kts 161°
2026-05-05 16:03 45.40157 9.60166 14500 ft 356 kts 161°
2026-05-05 16:04 45.37875 9.61575 15345 ft 360 kts 159°
2026-05-05 16:04 45.35658 9.63221 16155 ft 365 kts 155°
2026-05-05 16:04 45.33476 9.65105 16940 ft 370 kts 153°
2026-05-05 16:04 45.31317 9.67104 17693 ft 374 kts 152°
2026-05-05 16:05 45.29207 9.69104 18417 ft 378 kts 152°
2026-05-05 16:05 45.27029 9.71164 19109 ft 383 kts 152°
2026-05-05 16:05 45.24814 9.73237 19811 ft 386 kts 152°
2026-05-05 16:05 45.22562 9.75325 20444 ft 391 kts 152°
2026-05-05 16:06 45.20272 9.77436 21145 ft 394 kts 152°
2026-05-05 16:06 45.17955 9.79567 21771 ft 399 kts 152°
2026-05-05 16:06 45.15625 9.81706 22351 ft 403 kts 153°
2026-05-05 16:06 45.13289 9.83849 22982 ft 406 kts 153°
2026-05-05 16:07 45.10895 9.86042 23482 ft 412 kts 152°
2026-05-05 16:07 45.08495 9.88239 24085 ft 415 kts 153°
2026-05-05 16:07 45.06074 9.90455 24677 ft 417 kts 153°
2026-05-05 16:07 45.03648 9.92673 25180 ft 421 kts 153°
2026-05-05 16:08 45.01175 9.94931 25744 ft 424 kts 153°
2026-05-05 16:08 44.98682 9.97174 26269 ft 426 kts 154°
2026-05-05 16:08 44.96163 9.99319 26728 ft 429 kts 155°
2026-05-05 16:08 44.93582 10.01438 27252 ft 431 kts 156°
2026-05-05 16:09 44.90984 10.03542 27749 ft 434 kts 156°
2026-05-05 16:09 44.88360 10.05661 28148 ft 439 kts 156°
2026-05-05 16:09 44.85707 10.07812 28743 ft 439 kts 156°
2026-05-05 16:09 44.83055 10.09970 29137 ft 444 kts 156°
2026-05-05 16:10 44.80383 10.12148 29537 ft 448 kts 155°
2026-05-05 16:10 44.77670 10.14394 30046 ft 451 kts 154°
2026-05-05 16:10 44.75084 10.16905 30424 ft 460 kts 148°
2026-05-05 16:10 44.72660 10.19852 31077 ft 463 kts 142°
2026-05-05 16:11 44.70466 10.23156 31715 ft 466 kts 136°
2026-05-05 16:11 44.65401 10.34944 33083 ft 483 kts 117°
2026-05-05 16:12 44.64285 10.39400 33540 ft 488 kts 111°
2026-05-05 16:12 44.62862 10.48728 34423 ft 492 kts 104°
2026-05-05 16:13 44.60731 10.62657 35581 ft 487 kts 109°
2026-05-05 16:13 44.59805 10.67226 35968 ft 484 kts 111°
2026-05-05 16:13 44.58816 10.71692 36325 ft 482 kts 112°
2026-05-05 16:14 44.56716 10.80552 36954 ft 482 kts 113°
2026-05-05 16:14 44.55050 10.87341 36958 ft 482 kts 114°
2026-05-05 16:15 44.50822 11.05007 36955 ft 483 kts 110°
2026-05-05 16:16 44.47153 11.23081 36962 ft 483 kts 109°
2026-05-05 16:17 44.44357 11.36560 36957 ft 482 kts 110°
2026-05-05 16:18 44.41510 11.50052 36959 ft 483 kts 110°
2026-05-05 16:19 44.38646 11.63534 36954 ft 484 kts 110°
2026-05-05 16:19 44.35757 11.77026 36961 ft 486 kts 110°
2026-05-05 16:20 44.31870 11.95040 36960 ft 484 kts 110°
2026-05-05 16:22 44.26994 12.17398 36965 ft 485 kts 110°
2026-05-05 16:23 44.23048 12.35310 36968 ft 485 kts 110°
2026-05-05 16:23 44.20073 12.48727 36971 ft 486 kts 110°
2026-05-05 16:24 44.18088 12.57635 36967 ft 484 kts 110°
2026-05-05 16:25 44.15014 12.70958 36965 ft 482 kts 111°
2026-05-05 16:25 44.11828 12.84199 36964 ft 482 kts 111°
2026-05-05 16:26 44.07597 13.01785 36965 ft 482 kts 111°
2026-05-05 16:27 44.05468 13.10619 36964 ft 482 kts 111°
2026-05-05 16:27 44.03353 13.19356 36961 ft 483 kts 111°
2026-05-05 16:28 44.01206 13.28188 36958 ft 482 kts 111°
2026-05-05 16:28 43.99062 13.36971 36963 ft 482 kts 111°
2026-05-05 16:29 43.96911 13.45752 37285 ft 482 kts 111°
2026-05-05 16:29 43.95827 13.50158 37018 ft 484 kts 111°
2026-05-05 16:29 43.94763 13.54490 36977 ft 478 kts 111°
2026-05-05 16:30 43.92617 13.63198 36972 ft 478 kts 111°
2026-05-05 16:30 43.90451 13.71919 36978 ft 480 kts 111°
2026-05-05 16:31 43.88290 13.80594 36978 ft 480 kts 111°
2026-05-05 16:31 43.86109 13.89341 36980 ft 480 kts 111°
2026-05-05 16:32 43.83929 13.98040 36983 ft 480 kts 111°
2026-05-05 16:32 43.81746 14.06721 36991 ft 479 kts 111°
2026-05-05 16:33 43.79555 14.15409 36993 ft 479 kts 111°
2026-05-05 16:33 43.77202 14.23963 36994 ft 481 kts 115°
2026-05-05 16:34 43.74503 14.32400 36995 ft 478 kts 116°
2026-05-05 16:34 43.71757 14.40753 36994 ft 480 kts 116°
2026-05-05 16:35 43.69035 14.49115 36989 ft 480 kts 116°
2026-05-05 16:35 43.66337 14.57476 36992 ft 479 kts 115°
2026-05-05 16:36 43.63633 14.65886 36988 ft 480 kts 116°
2026-05-05 16:36 43.60936 14.74283 36992 ft 480 kts 116°
2026-05-05 16:37 43.58237 14.82663 36999 ft 481 kts 116°
2026-05-05 16:37 43.55518 14.91080 37000 ft 480 kts 116°
2026-05-05 16:38 43.52811 14.99434 37003 ft 480 kts 116°
2026-05-05 16:38 43.50097 15.07781 37000 ft 479 kts 116°
2026-05-05 16:39 43.47366 15.16150 37005 ft 480 kts 116°
2026-05-05 16:39 43.44641 15.24468 37006 ft 481 kts 115°
2026-05-05 16:40 43.41901 15.32814 37008 ft 480 kts 115°
2026-05-05 16:40 43.39157 15.41141 37012 ft 480 kts 115°
2026-05-05 16:41 43.36403 15.49475 37020 ft 480 kts 115°
2026-05-05 16:41 43.33643 15.57804 37021 ft 480 kts 115°
2026-05-05 16:42 43.30882 15.66108 37026 ft 481 kts 116°
2026-05-05 16:42 43.28106 15.74441 37026 ft 479 kts 116°
2026-05-05 16:43 43.25336 15.82728 37025 ft 480 kts 116°
2026-05-05 16:43 43.22555 15.91013 37027 ft 481 kts 116°
2026-05-05 16:44 43.19770 15.99290 37029 ft 482 kts 116°
2026-05-05 16:44 43.16957 16.07582 37030 ft 480 kts 117°
2026-05-05 16:45 43.13690 16.15481 37032 ft 479 kts 123°
2026-05-05 16:45 43.10113 16.23163 37030 ft 479 kts 124°
2026-05-05 16:46 43.06544 16.30747 37035 ft 479 kts 124°
2026-05-05 16:46 43.02970 16.38419 37033 ft 479 kts 123°
2026-05-05 16:47 42.99427 16.46096 37038 ft 479 kts 123°
2026-05-05 16:47 42.95902 16.53748 37039 ft 479 kts 123°
2026-05-05 16:48 42.92355 16.61455 37036 ft 478 kts 123°
2026-05-05 16:48 42.88834 16.69093 37040 ft 478 kts 124°
2026-05-05 16:49 42.85302 16.76735 37040 ft 480 kts 123°
2026-05-05 16:49 42.81743 16.84415 37043 ft 479 kts 124°
2026-05-05 16:50 42.78199 16.92043 37044 ft 479 kts 124°
2026-05-05 16:50 42.74655 16.99652 37043 ft 480 kts 124°
2026-05-05 16:51 42.71095 17.07273 37046 ft 479 kts 124°
2026-05-05 16:51 42.67527 17.14892 37044 ft 480 kts 123°
2026-05-05 16:52 42.63950 17.22514 37047 ft 480 kts 124°
2026-05-05 16:52 42.60362 17.30138 37049 ft 480 kts 123°
2026-05-05 16:53 42.56776 17.37734 37051 ft 480 kts 123°
2026-05-05 16:53 42.53196 17.45300 37049 ft 480 kts 123°
2026-05-05 16:54 42.49596 17.52886 37048 ft 479 kts 124°
2026-05-05 16:54 42.45975 17.60497 37048 ft 480 kts 124°
2026-05-05 16:55 42.42369 17.68059 37055 ft 480 kts 124°
2026-05-05 16:55 42.38768 17.75593 37052 ft 481 kts 124°
2026-05-05 16:56 42.35144 17.83154 37057 ft 480 kts 124°
2026-05-05 16:56 42.31525 17.90691 37057 ft 481 kts 124°
2026-05-05 16:57 42.27890 17.98236 37057 ft 480 kts 124°
2026-05-05 16:57 42.24250 18.05772 37057 ft 481 kts 124°
2026-05-05 16:58 42.20614 18.13282 37059 ft 480 kts 124°
2026-05-05 16:58 42.16957 18.20819 37059 ft 482 kts 124°
2026-05-05 16:59 42.13311 18.28311 37060 ft 482 kts 124°
2026-05-05 16:59 42.09652 18.35817 37063 ft 482 kts 124°
2026-05-05 17:00 42.05955 18.43381 37060 ft 483 kts 124°
2026-05-05 17:00 42.02177 18.50749 37065 ft 481 kts 129°